KO4WQD Weather Reports


time (UTC)temp
C
wind
direction
speed
KPH
gust
KPH
rain 1hr
cm
rain 24hr
cm
rain mn
cm
humidity
%
barometer
mb
20260507191528 17 26 1.6 12.9 0.00 0.00 0.00 39 1008.9
20260507190027 17 196 4.8 11.3 0.00 0.00 0.00 45 1009.0
20260507184517 17 36 9.7 20.9 0.00 0.00 0.00 41 1009.1
20260507183025 17 69 3.2 11.3 0.00 0.00 0.00 42 1009.2
20260507181522 17 44 3.2 16.1 0.00 0.00 0.00 41 1009.4
20260507180008 17 360 4.8 16.1 0.00 0.00 0.00 45 1009.6
20260507174516 17 49 9.7 14.5 0.00 0.00 0.00 44 1009.7
20260507173021 16 178 3.2 9.7 0.00 0.00 0.00 46 1010.1
20260507171522 16 326 4.8 16.1 0.00 0.00 0.00 43 1010.3
20260507170023 15 42 3.2 25.7 0.00 0.00 0.00 42 1010.8
20260507164512 16 19 4.8 8.0 0.00 0.00 0.00 43 1010.9
20260507163017 15 65 4.8 12.9 0.00 0.00 0.00 44 1011.1
20260507161520 15 59 8.0 19.3 0.00 0.00 0.00 47 1011.3
20260507160027 15 92 6.4 11.3 0.00 0.00 0.00 44 1011.6
20260507154534 15 17 14.5 20.9 0.00 0.00 0.00 46 1011.6
20260507153029 14 272 8.0 16.1 0.00 0.00 0.00 49 1011.9
20260507151521 13 17 11.3 29.0 0.00 0.00 0.00 52 1012.0
20260507150027 13 44 11.3 19.3 0.00 0.00 0.00 50 1012.3
20260507144526 13 337 9.7 22.5 0.00 0.00 0.00 49 1012.5
20260507143022 12 55 3.2 8.0 0.00 0.00 0.00 53 1012.5
20260507141519 12 53 4.8 9.7 0.00 0.03 0.00 53 1012.7
20260507140021 12 30 1.6 8.0 0.00 0.03 0.00 54 1013.0
20260507134530 12 30 1.6 9.7 0.00 0.13 0.00 54 1013.2
20260507133028 12 320 6.4 16.1 0.00 0.15 0.00 56 1013.2
20260507131519 12 36 1.6 8.0 0.00 0.18 0.00 59 1013.1
20260507130030 12 331 3.2 8.0 0.00 0.23 0.00 60 1013.3
20260507124528 11 60 4.8 6.4 0.00 0.30 0.00 60 1013.3
20260507123027 11 331 4.8 9.7 0.00 0.36 0.00 59 1013.1
20260507121526 11 24 3.2 8.0 0.00 0.41 0.00 61 1013.0
20260507120021 11 352 1.6 6.4 0.00 0.43 0.00 63 1013.2
20260507114521 11 28 3.2 4.8 0.00 0.53 0.00 60 1013.0
20260507113028 11 360 4.8 12.9 0.00 0.61 0.00 62 1012.7
20260507111527 11 5 4.8 14.5 0.00 0.66 0.00 59 1012.7
20260507110016 11 44 8.0 14.5 0.00 0.66 0.00 60 1012.6
20260507104520 11 13 6.4 12.9 0.00 0.66 0.00 64 1012.6
20260507103029 11 41 3.2 12.9 0.00 0.66 0.00 67 1012.2
20260507101527 12 30 6.4 12.9 0.00 0.66 0.00 69 1012.1
20260507100033 12 11 1.6 8.0 0.00 0.66 0.00 71 1011.8
20260507094526 12 347 4.8 8.0 0.00 0.66 0.00 71 1011.9
20260507093004 12 26 4.8 9.7 0.00 0.66 0.00 70 1011.8
20260507091510 12 38 0.0 6.4 0.00 0.66 0.00 71 1011.6
20260507090016 12 37 3.2 9.7 0.00 0.66 0.00 70 1011.7
20260507084519 12 60 1.6 6.4 0.00 0.66 0.00 70 1011.7
20260507083025 12 51 3.2 8.0 0.00 0.66 0.00 70 1011.5
20260507081504 12 79 1.6 12.9 0.00 0.66 0.00 71 1011.5
20260507080014 12 13 1.6 6.4 0.00 0.66 0.00 72 1011.4
20260507074518 12 69 3.2 9.7 0.00 0.66 0.00 72 1011.1
20260507073023 12 62 3.2 12.9 0.00 0.66 0.00 71 1011.1
20260507071555 12 14 0.0 8.0 0.00 0.66 0.00 71 1011.0
20260507070013 12 57 1.6 9.7 0.00 0.66 0.00 71 1011.1
20260507064515 12 326 3.2 16.1 0.00 0.66 0.00 73 1011.1
20260507063021 12 23 3.2 12.9 0.00 0.66 0.00 73 1011.5
20260507061525 13 12 1.6 11.3 0.00 0.66 0.00 73 1011.6
20260507060009 13 352 1.6 8.0 0.00 0.66 0.00 74 1011.5
20260507054512 13 311 3.2 11.3 0.00 0.66 0.00 75 1011.4
20260507053018 13 350 1.6 6.4 0.00 0.66 0.00 75 1011.4
20260507051530 13 35 4.8 16.1 0.00 0.66 0.00 75 1011.4
20260507050034 13 327 6.4 14.5 0.00 0.66 0.00 75 1011.5
20260507044510 13 38 4.8 9.7 0.00 0.66 0.00 75 1011.4
20260507043016 13 339 9.7 16.1 0.00 0.66 0.00 76 1011.2
20260507041524 13 11 4.8 14.5 0.00 0.66 0.00 78 1011.3
20260507040028 14 44 4.8 14.5 0.00 0.66 0.00 77 1010.8
20260507034535 14 341 4.8 19.3 0.00 0.66 0.66 78 1011.3
20260507033029 15 26 4.8 16.1 0.00 0.66 0.66 77 1010.2
20260507031519 15 39 4.8 11.3 0.00 0.66 0.66 77 1010.8
20260507030026 15 17 1.6 12.9 0.00 0.66 0.66 77 1010.6
20260507024526 16 9 1.6 17.7 0.00 0.66 0.66 77 1010.7
20260507023020 16 360 6.4 16.1 0.00 0.66 0.66 77 1009.8
20260507021518 16 360 9.7 14.5 0.00 0.66 0.66 77 1010.1
20260507020025 16 16 3.2 17.7 0.00 0.66 0.66 74 1009.8
20260507014508 17 15 3.2 8.0 0.00 0.66 0.66 74 1009.7
20260507013010 17 67 1.6 14.5 0.00 0.66 0.66 74 1009.7
20260507011517 17 94 1.6 12.9 0.00 0.66 0.66 74 1009.6
20260507010025 17 336 1.6 14.5 0.00 0.66 0.66 78 1009.7
20260507004535 17 340 4.8 9.7 0.00 0.66 0.66 78 1009.8
20260507003007 17 47 3.2 12.9 0.00 0.66 0.66 78 1009.6
20260507001512 18 70 3.2 8.0 0.00 0.66 0.66 81 1009.8
20260507000023 18 5 0.0 8.0 0.00 0.66 0.66 82 1009.4
20260506234522 18 234 0.0 3.2 0.00 0.66 0.66 85 1009.4
20260506233027 18 300 1.6 4.8 0.00 0.66 0.66 86 1009.0
20260506231512 18 213 1.6 3.2 0.00 0.66 0.66 89 1008.5
20260506230015 18 188 1.6 3.2 0.00 0.66 0.66 87 1008.2
20260506224521 19 326 0.0 3.2 0.00 0.66 0.66 84 1008.4
20260506223028 20 327 1.6 3.2 0.00 0.66 0.66 82 1008.2
20260506221509 20 215 1.6 3.2 0.00 0.66 0.66 81 1008.0
20260506220030 20 271 1.6 6.4 0.00 0.66 0.66 80 1008.0
20260506214519 20 200 3.2 11.3 0.00 0.66 0.66 78 1008.0
20260506213031 20 219 3.2 8.0 0.00 0.66 0.66 78 1007.9
20260506211532 20 275 3.2 9.7 0.00 0.66 0.66 78 1007.8
20260506210014 20 248 4.8 11.3 0.00 0.66 0.66 78 1007.5
20260506204517 20 235 4.8 14.5 0.00 0.66 0.66 78 1007.3
20260506203028 20 202 6.4 16.1 0.00 0.66 0.66 77 1007.3
20260506201528 20 171 8.0 16.1 0.00 0.66 0.66 78 1007.4
20260506200030 20 209 8.0 19.3 0.00 0.66 0.66 78 1007.5
20260506194516 20 156 6.4 9.7 0.00 0.66 0.66 78 1007.7
20260506193020 19 195 4.8 11.3 0.00 0.66 0.66 79 1007.6